Location: Praha
(50.0830°N, 14.4670°E)
Time: 18:17:41
(UTC+01:00)

ISS - Pass Details

Date: 06 January 2020
Orbit: 415 x 421 km, 51.6° (Epoch: 18 January)

Event Time Altitude Azimuth Distance (km) Brightness Sun altitude
Exits shadow 04:51:42 17° 93° (E) 1,132 -0.8 -29.1°
Drops below altitude 10° 04:52:40 10° 95° (E) 1,518 0.0 -29.0°
Sets 04:54:41 0° 98° (E) 2,351 1.3 -28.7°
